Content
SEND FEEDBACK

Daily
Averages
Monthly
Summary
United States of America

CAMP QUEZON, GUAM


Home > North America > United States > Guam
Elevation: 82 meters     Latitude: 13 28N     Longitude: 144 48E

WEATHER
 
SELECT A DAY
Number of Records: 208,892;   Date Range: 1/1/95 - 7/22/14
 
SHARE

PRINT THIS DATA

[ ← Previous Day ]
WEATHER ALMANAC - 31 DECEMBER, 2012
[ Next Day → ]
[ °F ]   °C
Weather ElementAverageHighLow
Temperature28.1 °C30.6 °C (12:54 pm)26.7 °C (1:54 am)
Dewpoint23.9 °C24.4 °C (5:54 am)22.8 °C (1:54 am)
Humidity78.4 %87 % (5:54 am)67 % (11:54 am)
Barometer1009.8 hPa1011.5 hPa (8:54 am)1008.5 hPa (2:54 am)
Wind Speed22.5 km/h33.3 km/h (3:54 pm)
Wind Gust40.7 km/h (2:54 pm)
Weather ElementAverage
Visibility16.1 km
Wind DirectionENE (75.8 °)

Weather ElementTotal
Precipitation---
Cooling Degree Days10.3 (Base 18.3)
Growing Degree Days18.7 (Base 10)
Averaged from 26 records on 31 December, 2012
WEATHER CONDITIONS BREAKOUT
WIND DIRECTION BREAKOUT
WEATHER BY HOUR - 31 DECEMBER, 2012
[ °F ]   °C
Local TimeTemperatureDewpointHumidityBarometerVisibilityWind DirectionWind SpeedGust SpeedPrecipitationEventsConditions
1:54 AM26.7 °C22.8 °C79 %1009.1 hPa16.1 kmEast (80°)18.5 km/hScattered Clouds
2:54 AM26.7 °C23.3 °C81 %1008.5 hPa16.1 kmEast (80°)18.5 km/hScattered Clouds
3:09 AM27 °C23 °C79 %1009.5 hPa16.1 kmEast (80°)20.4 km/hMostly Cloudy
3:33 AM27 °C23 °C79 %1009.5 hPa16.1 kmEast (80°)18.5 km/hScattered Clouds
3:54 AM27.2 °C23.3 °C79 %1008.8 hPa16.1 kmEast (80°)24.1 km/hPartly Cloudy
4:54 AM26.7 °C23.9 °C85 %1009.1 hPa16.1 kmEast (80°)20.4 km/hScattered Clouds
5:47 AM27 °C24 °C84 %1010.2 hPa16.1 kmENE (70°)18.5 km/hMostly Cloudy
5:54 AM26.7 °C24.4 °C87 %1009.5 hPa16.1 kmEast (80°)20.4 km/hScattered Clouds
6:54 AM27.2 °C23.9 °C82 %1010.2 hPa16.1 kmEast (80°)24.1 km/hPartly Cloudy
7:54 AM27.2 °C23.9 °C82 %1010.8 hPa16.1 kmEast (80°)24.1 km/hMostly Cloudy
8:54 AM28.3 °C23.9 °C77 %1011.5 hPa16.1 kmENE (70°)20.4 km/hScattered Clouds
9:54 AM28.9 °C23.9 °C74 %1011.5 hPa16.1 kmEast (80°)25.9 km/h37 km/hMostly Cloudy
10:54 AM30 °C23.9 °C70 %1011.2 hPa16.1 kmEast (80°)29.6 km/h38.9 km/hScattered Clouds
11:54 AM30 °C23.3 °C67 %1010.2 hPa16.1 kmEast (80°)27.8 km/h38.9 km/hScattered Clouds
12:54 PM30.6 °C23.9 °C67 %1009.5 hPa16.1 kmEast (100°)24.1 km/hScattered Clouds
1:54 PM30 °C23.9 °C70 %1008.8 hPa16.1 kmEast (90°)25.9 km/h35.2 km/hScattered Clouds
2:54 PM30 °C23.9 °C70 %1008.5 hPa16.1 kmENE (70°)29.6 km/h40.7 km/hScattered Clouds
3:54 PM29.4 °C23.9 °C72 %1008.5 hPa16.1 kmENE (70°)33.3 km/h40.7 km/hScattered Clouds
4:54 PM28.9 °C23.9 °C74 %1008.8 hPa16.1 kmENE (70°)24.1 km/hScattered Clouds
5:54 PM28.3 °C24.4 °C79 %1009.5 hPa16.1 kmENE (60°)16.7 km/hPartly Cloudy
6:54 PM27.8 °C24.4 °C82 %1009.8 hPa16.1 kmENE (60°)14.8 km/hPartly Cloudy
7:54 PM27.8 °C24.4 °C82 %1010.5 hPa16.1 kmENE (70°)18.5 km/hClear
8:54 PM27.8 °C24.4 °C82 %1010.8 hPa16.1 kmENE (70°)18.5 km/hPartly Cloudy
9:54 PM27.2 °C24.4 °C85 %1010.8 hPa16.1 kmENE (70°)22.2 km/hPartly Cloudy
10:54 PM27.2 °C24.4 °C85 %1010.8 hPa16.1 kmENE (70°)24.1 km/hPartly Cloudy
11:54 PM27.2 °C24.4 °C85 %1010.5 hPa16.1 kmENE (70°)22.2 km/hPartly Cloudy
Hourly data recorded from PGUM, located 0 kilometers away from Camp Quezon, Guam







STORIES FROM OUR PARTNERS